Location: Eastlake (historical)
(39.0077°N, 122.6678°W)
Time: 04:20:36
(UTC+00:00)

CENTAUR R/B - Pass Details

Date: 25 November 2020
Orbit: 750 x 1438 km, 63.4° (Epoch: 11 January)

Event Time Altitude Azimuth Distance (km) Brightness Sun altitude
Exits shadow 14:14:42 - 316° (NW) 3,608 4.9 -9.9°
Reaches altitude 10° 14:15:27 10° 314° (NW) 3,381 4.8 -9.7°
Maximum altitude 14:23:14 43° 247° (WSW) 1,900 3.7 -8.3°
Drops below altitude 10° 14:31:24 10° 180° (S) 3,534 5.7 -6.8°
Sets 14:34:30 0° 174° (S) 4,488 6.4 -6.3°
